Location: アルンシュタイン
(50.0000°N, 10.0000°E)
Time: 06:27:57
(UTC+01:00)

M-CUBED/EXP-1 PRIME - Visible Passes

Search period start: 25 January 2022 00:00
Search period end: 04 February 2022 00:00
Orbit: 426 x 650 km, 101.7° (Epoch: 24 January)

Date Brightness Start Highest point End Pass type
(mag) Time Alt. Az. Time Alt. Az. Time Alt. Az.
25 Jan ? 18:06:34 10° NE 18:06:34 10° NE 18:06:42 10° NE visible
25 Jan ? 19:42:02 17° NNW 19:42:02 17° NNW 19:42:56 10° NNW visible
26 Jan ? 19:33:59 17° NNW 19:33:59 17° NNW 19:34:53 10° NNW visible
27 Jan ? 19:25:56 17° N 19:25:56 17° N 19:26:47 10° N visible
28 Jan ? 19:17:51 16° N 19:17:51 16° N 19:18:40 10° N visible
29 Jan ? 19:09:45 15° N 19:09:45 15° N 19:10:29 10° N visible
30 Jan ? 19:01:38 14° NNE 19:01:38 14° NNE 19:02:16 10° N visible
31 Jan ? 18:53:30 12° NNE 18:53:30 12° NNE 18:53:59 10° N visible
01 Feb ? 18:45:22 11° NNE 18:45:22 11° NNE 18:45:36 10° NNE visible
03 Feb ? 20:04:29 11° NNW 20:04:29 11° NNW 20:04:34 10° NNW visible
